Location: Namasale
(1.5000°N, 32.6167°E)
Time: 19:46:00
(UTC+00:00)

SR - Pass Details

Date: 13 April 2021
Orbit: 573 x 882 km, 66.7° (Epoch: 13 May)

Event Time Altitude Azimuth Distance (km) Brightness Sun altitude
Rises 17:50:41 0° 322° (NW) 3,258 ? -29.5°
Reaches altitude 10° 17:53:27 10° 312° (NW) 2,279 ? -30.1°
Maximum altitude 17:57:54 29° 252° (WSW) 1,285 ? -31.2°
Enters shadow 17:59:14 26° 224° (SW) 1,378 ? -31.5°
